Regional Weather Roundup
Issued by NWS

Home | Current Version | Previous Version | Text Only | Print | Product List | Glossary Off
Versions: 1 2 3 4 5 6 7 8 9 10 11 12 13 14 15 16 17 18 19 20 21 22 23 24 25 26 27 28 29 30 31 32 33 34 35 36 37 38 39 40 41 42 43 44 45 46 47 48 49 50

000
ASUS43 KLOT 190706
RWRIL

ILLINOIS REGIONAL WEATHER ROUNDUP
NATIONAL WEATHER SERVICE CHICAGO/ROMEOVILLE IL
200 AM CDT SAT APR 19 2014

NOTE: "FAIR" INDICATES FEW OR NO CLOUDS BELOW 12,000 FEET WITH NO
SIGNIFICANT WEATHER AND/OR OBSTRUCTIONS TO VISIBILITY.

* THESE STATIONS ARE NOT UNDER NWS QUALITY CONTROL. THEY ALSO MAY NOT
  REPORT WEATHER SUCH AS PRECIPITATION OR FOG.

ILZ001-002-007-009-015-016-024-190800-
NORTHWEST ILLINOIS

CITY           SKY/WX    TMP DP  RH WIND       PRES   REMARKS
MOLINE         CLEAR     41  33  73 E12       30.32S
STERLING*      PTCLDY    36  28  75 E7        30.35R WCI  30
SAVANNA*       CLEAR     37  30  77 E9        30.34F WCI  30
$$

ILZ003-004-008-010-011-017-018-190800-
NORTH CENTRAL ILLINOIS

CITY           SKY/WX    TMP DP  RH WIND       PRES   REMARKS
ROCKFORD       PTCLDY    36  26  67 E8        30.37F WCI  30
FREEPORT*      CLEAR     35  31  83 E9        30.36S WCI  28
ROCHELLE*      CLEAR     36  27  70 E6        30.35R WCI  31
DE KALB*       CLEAR     35  24  63 E12       30.35S WCI  27
PERU*          PTCLDY    38  31  76 CALM      30.34F
$$

ILZ005-006-012>014-019>023-190800-
NORTHEAST ILLINOIS

CITY           SKY/WX    TMP DP  RH WIND       PRES   REMARKS
CHICAGO-OHARE  CLEAR     38  26  62 NE10      30.36F WCI  31
CHICAGO-MIDWAY CLEAR     40  29  64 NE9       30.36S
AURORA         CLEAR     37  25  61 E8        30.35S WCI  31
LANSING*       CLEAR     37  29  72 NE8       30.36S WCI  31
WAUKEGAN       CLEAR     35  28  75 NE9       30.37S WCI  28
DUPAGE AIRPORT CLEAR     37  27  67 NE9       30.34F WCI  30
KANKAKEE*      CLEAR     34  29  82 NE3       30.35S
WHEELING       CLEAR     38  28  67 NE7       30.38F WCI  33
MORRIS*        CLEAR     38  26  64 CALM      30.35S
NORTHERLY ISL    N/A     39  31  73 NE13        N/A  WCI  31
$$

LMZ740>746-190800-
SOUTHERN LAKE MICHIGAN

STATION/POSITION SKY/WX   TEMP    WIND        PRES    VSBY  WAVE
                          AIR SEA DIR/SP/G                  HT/PER
                          (F)     (DEG/KT/KT) (MB)    (MI)  (FT/S)
WAUKEGAN HARBOR            37      60/ 11/ 12 1030.1S
HARRISON CRIB              38      40/ 13/ 17   N/A
BURNHAM HARBOR             39      40/ 11/ 14   N/A
CALUMET HARBOR             38      30/ 11/ 13 1028.9S
MICHIGAN CITY              38      20/ 11/ 12   N/A
$$

ILZ025>027-034>036-040-047-049-050-058-095>099-190800-
WEST-CENTRAL ILLINOIS

CITY           SKY/WX    TMP DP  RH WIND       PRES   REMARKS
QUINCY         MOCLDY    50  29  44 E9        30.25S
GALESBURG*     PTCLDY    41  34  75 E12G20    30.30S
MACOMB*        MOCLDY    46  38  73 E13       30.31S
JACKSONVILLE*  MOCLDY    42  34  73 NE8       30.29S
PITTSFIELD*    PTCLDY    50  31  48 NE8       30.26F
$$

ILZ028>032-037-038-041>044-048-051>054-059>061-190800-
CENTRAL ILLINOIS

CITY           SKY/WX    TMP DP  RH WIND       PRES   REMARKS
PONTIAC        PTCLDY    37  30  75 E8        30.34F WCI  31
BLOOMINGTON    PTCLDY    36  28  73 NE12      30.33S WCI  28
DECATUR        CLEAR     41  36  82 NE8       30.30R
PEORIA         MOCLDY    42  31  64 E10       30.32S
LACON*         MOCLDY    37  32  82 E3        30.34F
LINCOLN*       MOCLDY    44  35  71 E10       30.31S
SPRINGFIELD    PTCLDY    47  35  63 E9        30.29S
TAYLORVILLE    CLEAR     46  34  61 E12       30.28R
$$

ILZ033-039-045-046-055>057-062-063-190800-
EAST-CENTRAL ILLINOIS

CITY           SKY/WX    TMP DP  RH WIND       PRES   REMARKS
CHAMPAIGN      CLEAR     42  33  70 NE14      30.28F
RANTOUL*       CLEAR     42  29  61 NE13      30.31S
MATTOON        CLEAR     43  34  70 NE7       30.26F
PARIS*         CLEAR     45  33  64 NE9       30.29S
$$

ILZ079-100>102-190800-
SOUTHWEST ILLINOIS

CITY           SKY/WX    TMP DP  RH WIND       PRES   REMARKS
ALTON          CLEAR     47  42  82 CALM      30.25F
BELLEVILLE     CLEAR     47  42  84 CALM      30.24S
CAHOKIA*       CLEAR     47  44  90 CALM      30.25S
SPARTA*        CLEAR     50  43  76 CALM      30.25F
$$

ILZ064>066-069>071-074>076-080>082-084>086-088>090-092>094-190800-
SOUTH-CENTRAL ILLINOIS

CITY           SKY/WX    TMP DP  RH WIND       PRES   REMARKS
CARBONDALE     CLEAR     48  44  86 CALM      30.23F
CAIRO*         CLEAR     55  45  68 N3        30.22S
MARION         CLEAR     48  45  87 N3        30.24S
MT. VERNON     CLEAR     43  34  70 N3        30.24F
CENTRALIA*       N/A     46  42  87 CALM      30.25S
SALEM*         CLEAR     55  42  60 NE7       30.25F
METROPOLIS*    CLEAR     52  42  67 CALM      30.21S
$$

ILZ067-068-072-073-078-083-087-091-190800-
SOUTHEAST ILLINOIS

CITY           SKY/WX    TMP DP  RH WIND       PRES   REMARKS
FAIRFIELD*     CLEAR     54  45  71 N7        30.24S
HARRISBURG*    CLEAR     52  43  70 N5        30.24S
ROBINSON*      CLEAR     49  41  74 NE8       30.27S
CARMI*         CLEAR     56  46  69 N7        30.23S
$$

ABBREVIATIONS USED IN REMARKS
   TC - TEMPERATURE IN CELSIUS
  WCI - WIND CHILL INDEX
   HX - HEAT INDEX
  VSB - VISIBILITY
$$




USA.gov is the U.S. government's official web portal to all federal, state and local government web resources and services.